When you browse on this site, cookies collect data to enhance your experience and personalize the content and advertising you see.
Visit our Privacy Policy to learn more. By continuing to use the site, you agree to this use of cookies and data.
  • In Schweiz
  • Länderverzeichnis
  • Für 7 Tage
  • Wassertemperatur
  • Wetterkarte
  • Widgets
  • user-avatar
    Anmelden

    Stündliche Wetter Priselskaya

    Heute, 17 August, Samstag

    Zeit Temperatur Niederschläge Wind Luftdruck Luftfeuchtigkeit
    00:00 +13°C° 0 mm 2 m/S 741 mmHg 79%
    01:00 +13°C° 0 mm 2 m/S 741 mmHg 79%
    02:00 +13°C° 0 mm 3 m/S 741 mmHg 80%
    03:00 +12°C° 0.2 mm 3 m/S 741 mmHg 83%
    04:00 +12°C° 0.2 mm 3 m/S 741 mmHg 86%
    05:00 +12°C° 0.2 mm 3 m/S 741 mmHg 89%
    06:00 +13°C° 0.1 mm 4 m/S 741 mmHg 87%
    07:00 +13°C° 0.1 mm 4 m/S 741 mmHg 85%
    08:00 +13°C° 0.1 mm 4 m/S 741 mmHg 83%
    09:00 +13°C° 0.2 mm 4 m/S 741 mmHg 84%
    10:00 +14°C° 0.2 mm 4 m/S 741 mmHg 85%
    11:00 +14°C° 0.2 mm 4 m/S 741 mmHg 87%
    12:00 +14°C° 0.5 mm 4 m/S 740 mmHg 88%
    13:00 +14°C° 0.5 mm 4 m/S 740 mmHg 90%
    14:00 +14°C° 0.5 mm 4 m/S 740 mmHg 91%
    15:00 +14°C° 0.8 mm 3 m/S 740 mmHg 92%
    16:00 +14°C° 0.8 mm 3 m/S 740 mmHg 92%
    17:00 +14°C° 0.8 mm 3 m/S 740 mmHg 93%
    18:00 +14°C° 1 mm 3 m/S 739 mmHg 94%
    19:00 +14°C° 1 mm 3 m/S 739 mmHg 95%
    20:00 +13°C° 1 mm 4 m/S 739 mmHg 96%
    21:00 +13°C° 1.1 mm 4 m/S 739 mmHg 96%
    22:00 +13°C° 1.1 mm 3 m/S 738 mmHg 96%
    23:00 +13°C° 1.1 mm 3 m/S 738 mmHg 97%

    Morgen, 18 August, Sonntag

    Zeit Temperatur Niederschläge Wind Luftdruck Luftfeuchtigkeit
    00:00 +13°C° 1 mm 3 m/S 738 mmHg 97%
    01:00 +13°C° 1 mm 3 m/S 738 mmHg 97%
    02:00 +13°C° 1 mm 3 m/S 738 mmHg 96%
    03:00 +13°C° 0 mm 3 m/S 738 mmHg 97%
    04:00 +12°C° 0 mm 3 m/S 738 mmHg 97%
    05:00 +12°C° 0 mm 3 m/S 738 mmHg 97%
    06:00 +12°C° 0 mm 3 m/S 738 mmHg 95%
    07:00 +13°C° 0 mm 3 m/S 738 mmHg 94%
    08:00 +14°C° 0 mm 3 m/S 738 mmHg 92%
    09:00 +17°C° 0 mm 3 m/S 738 mmHg 84%
    10:00 +18°C° 0 mm 3 m/S 739 mmHg 77%
    11:00 +20°C° 0 mm 3 m/S 739 mmHg 69%
    12:00 +21°C° 0 mm 3 m/S 739 mmHg 66%
    13:00 +21°C° 0 mm 3 m/S 739 mmHg 63%
    14:00 +22°C° 0 mm 3 m/S 739 mmHg 60%
    15:00 +22°C° 0 mm 3 m/S 740 mmHg 64%
    16:00 +21°C° 0 mm 2 m/S 740 mmHg 67%
    17:00 +21°C° 0 mm 2 m/S 740 mmHg 71%
    18:00 +19°C° 0 mm 2 m/S 740 mmHg 77%
    19:00 +17°C° 0 mm 2 m/S 740 mmHg 82%
    20:00 +15°C° 0 mm 2 m/S 741 mmHg 88%
    21:00 +15°C° 0 mm 1 m/S 741 mmHg 89%
    22:00 +14°C° 0 mm 1 m/S 741 mmHg 91%
    23:00 +13°C° 0 mm 1 m/S 741 mmHg 92%

    übermorgen, 19 August, Montag

    Zeit Temperatur Niederschläge Wind Luftdruck Luftfeuchtigkeit
    00:00 +13°C° 0 mm 1 m/S 742 mmHg 92%
    01:00 +13°C° 0 mm 1 m/S 742 mmHg 93%
    02:00 +13°C° 0 mm 1 m/S 742 mmHg 94%
    03:00 +13°C° 0 mm 1 m/S 742 mmHg 93%
    04:00 +13°C° 0 mm 2 m/S 742 mmHg 93%
    05:00 +13°C° 0 mm 2 m/S 742 mmHg 92%
    06:00 +14°C° 0 mm 2 m/S 743 mmHg 87%
    07:00 +16°C° 0 mm 2 m/S 743 mmHg 82%
    08:00 +18°C° 0 mm 3 m/S 744 mmHg 76%
    09:00 +20°C° 0 mm 3 m/S 744 mmHg 72%
    10:00 +21°C° 0 mm 3 m/S 744 mmHg 69%
    11:00 +23°C° 0 mm 4 m/S 744 mmHg 65%
    12:00 +23°C° 0 mm 4 m/S 744 mmHg 64%
    13:00 +25°C° 0 mm 4 m/S 744 mmHg 62%
    14:00 +26°C° 0 mm 4 m/S 744 mmHg 61%
    15:00 +25°C° 0 mm 4 m/S 744 mmHg 65%
    16:00 +25°C° 0 mm 3 m/S 744 mmHg 69%
    17:00 +24°C° 0 mm 3 m/S 744 mmHg 73%
    18:00 +22°C° 0 mm 3 m/S 744 mmHg 78%
    19:00 +21°C° 0 mm 3 m/S 744 mmHg 83%
    20:00 +19°C° 0 mm 3 m/S 744 mmHg 89%
    21:00 +19°C° 0 mm 3 m/S 745 mmHg 88%
    22:00 +18°C° 0 mm 3 m/S 745 mmHg 87%
    23:00 +18°C° 0 mm 3 m/S 745 mmHg 86%

    20 August, Dienstag

    Zeit Temperatur Niederschläge Wind Luftdruck Luftfeuchtigkeit
    00:00 +17°C° 0.1 mm 3 m/S 745 mmHg 89%
    01:00 +17°C° 0.1 mm 2 m/S 745 mmHg 91%
    02:00 +16°C° 0.1 mm 2 m/S 745 mmHg 93%
    03:00 +16°C° 0.1 mm 2 m/S 745 mmHg 93%
    04:00 +16°C° 0.1 mm 2 m/S 745 mmHg 93%
    05:00 +15°C° 0.1 mm 2 m/S 745 mmHg 93%
    06:00 +17°C° 0 mm 2 m/S 745 mmHg 90%
    07:00 +18°C° 0 mm 2 m/S 745 mmHg 87%
    08:00 +19°C° 0 mm 3 m/S 745 mmHg 84%
    09:00 +21°C° 0 mm 3 m/S 746 mmHg 79%
    10:00 +22°C° 0 mm 3 m/S 746 mmHg 74%
    11:00 +25°C° 0 mm 3 m/S 746 mmHg 70%
    12:00 +26°C° 0.1 mm 3 m/S 746 mmHg 69%
    13:00 +26°C° 0.1 mm 3 m/S 746 mmHg 69%
    14:00 +27°C° 0.1 mm 3 m/S 746 mmHg 69%
    15:00 +26°C° 0.3 mm 3 m/S 746 mmHg 74%
    16:00 +25°C° 0.3 mm 3 m/S 745 mmHg 79%
    17:00 +25°C° 0.3 mm 2 m/S 745 mmHg 84%
    18:00 +23°C° 0.3 mm 2 m/S 745 mmHg 87%
    19:00 +21°C° 0.3 mm 2 m/S 745 mmHg 91%
    20:00 +20°C° 0.3 mm 2 m/S 746 mmHg 94%
    21:00 +20°C° 0 mm 2 m/S 746 mmHg 95%
    22:00 +20°C° 0 mm 1 m/S 746 mmHg 95%
    23:00 +20°C° 0 mm 1 m/S 746 mmHg 96%

    21 August, Mittwoch

    Zeit Temperatur Niederschläge Wind Luftdruck Luftfeuchtigkeit
    00:00 +19°C° 0 mm 1 m/S 746 mmHg 96%
    01:00 +19°C° 0 mm 1 m/S 746 mmHg 96%
    02:00 +19°C° 0 mm 1 m/S 746 mmHg 97%
    03:00 +19°C° 0 mm 1 m/S 746 mmHg 97%
    04:00 +19°C° 0 mm 1 m/S 746 mmHg 97%
    05:00 +18°C° 0 mm 1 m/S 745 mmHg 97%
    06:00 +20°C° 0 mm 1 m/S 746 mmHg 94%
    07:00 +21°C° 0 mm 1 m/S 746 mmHg 92%
    08:00 +23°C° 0 mm 1 m/S 746 mmHg 89%
    09:00 +24°C° 0 mm 2 m/S 746 mmHg 82%
    10:00 +25°C° 0 mm 2 m/S 746 mmHg 76%
    11:00 +27°C° 0 mm 2 m/S 746 mmHg 69%
    12:00 +27°C° 0.1 mm 3 m/S 745 mmHg 68%
    13:00 +28°C° 0.1 mm 3 m/S 745 mmHg 66%
    14:00 +28°C° 0.1 mm 3 m/S 745 mmHg 65%
    15:00 +28°C° 0 mm 3 m/S 744 mmHg 68%
    16:00 +27°C° 0 mm 2 m/S 744 mmHg 71%
    17:00 +27°C° 0 mm 2 m/S 744 mmHg 74%
    18:00 +25°C° 0 mm 2 m/S 743 mmHg 79%
    19:00 +24°C° 0 mm 2 m/S 743 mmHg 84%
    20:00 +21°C° 0 mm 2 m/S 743 mmHg 89%
    21:00 +20°C° 0 mm 2 m/S 743 mmHg 90%
    22:00 +19°C° 0 mm 2 m/S 742 mmHg 91%
    23:00 +19°C° 0 mm 2 m/S 742 mmHg 91%

    22 August, Donnerstag

    Zeit Temperatur Niederschläge Wind Luftdruck Luftfeuchtigkeit
    00:00 +18°C° 0 mm 2 m/S 742 mmHg 91%
    01:00 +18°C° 0 mm 2 m/S 742 mmHg 90%
    02:00 +18°C° 0 mm 2 m/S 742 mmHg 89%
    03:00 +17°C° 0 mm 3 m/S 742 mmHg 90%
    04:00 +17°C° 0 mm 3 m/S 743 mmHg 91%
    05:00 +17°C° 0 mm 4 m/S 743 mmHg 92%
    06:00 +17°C° 0 mm 4 m/S 744 mmHg 89%
    07:00 +15°C° 0 mm 4 m/S 744 mmHg 85%
    08:00 +15°C° 0 mm 4 m/S 745 mmHg 82%
    09:00 +17°C° 0 mm 4 m/S 745 mmHg 78%
    10:00 +18°C° 0 mm 4 m/S 746 mmHg 73%
    11:00 +19°C° 0 mm 5 m/S 747 mmHg 68%
    12:00 +20°C° 0 mm 4 m/S 747 mmHg 65%
    13:00 +21°C° 0 mm 4 m/S 747 mmHg 63%
    14:00 +21°C° 0 mm 4 m/S 747 mmHg 60%
    15:00 +21°C° 0 mm 3 m/S 747 mmHg 62%
    16:00 +21°C° 0 mm 2 m/S 747 mmHg 65%
    17:00 +20°C° 0 mm 2 m/S 747 mmHg 67%
    18:00 +19°C° 0 mm 2 m/S 747 mmHg 72%
    19:00 +17°C° 0 mm 2 m/S 747 mmHg 77%
    20:00 +15°C° 0 mm 1 m/S 748 mmHg 82%
    21:00 +14°C° 0 mm 1 m/S 748 mmHg 83%
    22:00 +14°C° 0 mm 1 m/S 748 mmHg 84%
    23:00 +13°C° 0 mm 1 m/S 748 mmHg 85%
    Mehr zeigen